New Iberia, LA

5:07 PM CDT on June 23, 2017 (GMT -0500)
Acadiana Regional

Weather History for KARA - July, 2013

Change the Weather History Date:

Sunday, July 21, 2013

  Actual Average Record
Temperature  
Mean Temperature 81 °F 83 °F  
Max Temperature 87 °F 92 °F 98 °F (2005)
Min Temperature 75 °F 74 °F 66 °F (1956)
Degree Days  
Heating Degree Days 0 0  
Month to date heating degree days 0 0  
Since 1 June heating degree days 0 0  
Since 1 July heating degree days 0 0  
Cooling Degree Days 16 18  
Month to date cooling degree days 368 367  
Year to date cooling degree days 1512 1408  
Since 1 June cooling degree days 931 838  
Growing Degree Days 30 (Base 50)    
Moisture  
Dew Point 73 °F    
Average Humidity 78    
Maximum Humidity 94    
Minimum Humidity 61    
Precipitation  
Precipitation 0.28 in 0.21 in 2.50 in (1986)
Month to date precipitation 6.04 4.49  
Year to date precipitation 47.60 33.62  
Sea Level Pressure  
Sea Level Pressure 30.03 in    
Wind  
Wind Speed 7 mph (SSW)    
Max Wind Speed 21 mph    
Max Gust Speed 26 mph    
Visibility 10 miles    
Events Rain    
T = Trace of Precipitation, MM = Missing Value Source: NWS Daily Summary

Daily Weather History Graph

Daily Weather History Graph

Search for Another Location

Airport or City:

Trip Planner

Search our weather history database for the weather conditions in past years. The results will help you decide how hot, cold, wet, or windy it might be!

Date:

Astronomy

Jul. 21, 2013 Rise Set
Actual Time 6:20 AM CDT 8:07 PM CDT
Civil Twilight 5:53 AM CDT 8:34 PM CDT
Nautical Twilight 5:21 AM CDT 9:05 PM CDT
Astronomical Twilight 4:47 AM CDT 9:39 PM CDT
Moon 7:09 PM CDT (7/21) 5:04 AM CDT (7/21)
Length of Visible Light 14h 40m
Length of Day
13h 47m
Waxing Gibbous, 98% of the Moon is Illuminated
Jul 21
Waxing Gibbous
Jul 22
Full
Jul 29
Last Quarter
Aug 6
New
Aug 14
First Quarter

Hourly Weather History & Observations

Time (CDT) Temp. Heat Index Dew Point Humidity Pressure Visibility Wind Dir Wind Speed Gust Speed Precip Events Conditions
12:53 AM 77.0 °F - 73.9 °F 90% 29.99 in 10.0 mi SE 3.5 mph - N/A   Clear
1:53 AM 75.9 °F - 73.0 °F 91% 29.99 in 10.0 mi Calm Calm - N/A   Clear
2:53 AM 75.9 °F - 73.0 °F 91% 29.99 in 10.0 mi Calm Calm - N/A   Clear
3:53 AM 75.9 °F - 72.0 °F 87% 29.99 in 10.0 mi Calm Calm - N/A   Clear
4:53 AM 75.0 °F - 72.0 °F 90% 29.99 in 10.0 mi SSE 3.5 mph - N/A   Clear
5:53 AM 77.0 °F - 73.0 °F 88% 30.00 in 10.0 mi North - - N/A   Mostly Cloudy
6:03 AM 77.0 °F - 73.4 °F 89% 30.00 in 10.0 mi South 8.1 mph - N/A   Scattered Clouds
6:53 AM 78.1 °F - 73.9 °F 87% 29.99 in 10.0 mi Calm Calm - N/A   Clear
7:53 AM 80.1 °F 84.5 °F 73.9 °F 81% 30.01 in 10.0 mi Calm Calm - N/A   Clear
8:53 AM 82.9 °F 90.8 °F 75.9 °F 79% 30.02 in 10.0 mi Calm Calm - N/A   Scattered Clouds
9:08 AM 80.6 °F 85.4 °F 73.4 °F 79% 30.02 in 10.0 mi South 11.5 mph - N/A   Mostly Cloudy
9:29 AM 78.8 °F - 73.4 °F 83% 30.05 in 1.8 mi SW 12.7 mph - 0.10 in Rain Heavy Rain
9:53 AM 75.9 °F - 72.0 °F 87% 30.07 in 5.0 mi SSW 18.4 mph 25.3 mph 0.26 in Rain Light Rain
10:14 AM 77.0 °F - 73.4 °F 89% 30.06 in 10.0 mi SSW 12.7 mph - 0.02 in   Overcast
10:23 AM 77.0 °F - 73.4 °F 89% 30.07 in 9.0 mi SW 10.4 mph 19.6 mph 0.02 in Rain Light Rain
10:31 AM 78.8 °F - 73.4 °F 83% 30.07 in 10.0 mi SW 8.1 mph - 0.02 in Rain Light Rain
10:38 AM 78.8 °F - 73.4 °F 83% 30.07 in 10.0 mi SW 10.4 mph - 0.02 in   Mostly Cloudy
10:46 AM 78.8 °F - 73.4 °F 83% 30.07 in 10.0 mi SSW 11.5 mph - 0.02 in   Mostly Cloudy
10:53 AM 78.1 °F - 73.9 °F 87% 30.07 in 10.0 mi SSW 13.8 mph 19.6 mph 0.02 in   Mostly Cloudy
11:10 AM 78.8 °F - 73.4 °F 83% 30.07 in 10.0 mi SW 13.8 mph - N/A   Scattered Clouds
11:32 AM 80.6 °F 86.2 °F 75.2 °F 84% 30.07 in 10.0 mi SSW 11.5 mph - N/A   Mostly Cloudy
11:53 AM 82.0 °F 87.9 °F 73.9 °F 76% 30.08 in 10.0 mi SSW 17.3 mph 26.5 mph N/A   Mostly Cloudy
12:05 PM 80.6 °F 85.4 °F 73.4 °F 79% 30.07 in 10.0 mi SW 15.0 mph - N/A   Overcast
12:46 PM 82.4 °F 88.2 °F 73.4 °F 74% 30.07 in 10.0 mi WSW 12.7 mph 20.7 mph N/A   Scattered Clouds
12:53 PM 82.9 °F 88.8 °F 73.0 °F 72% 30.06 in 10.0 mi WSW 12.7 mph 21.9 mph N/A   Partly Cloudy
1:53 PM 82.9 °F 88.0 °F 72.0 °F 69% 30.04 in 10.0 mi SSW 10.4 mph - N/A   Partly Cloudy
2:53 PM 84.0 °F 89.6 °F 72.0 °F 67% 30.03 in 10.0 mi SSW 11.5 mph - N/A   Scattered Clouds
3:53 PM 84.9 °F 92.1 °F 73.9 °F 69% 30.01 in 10.0 mi SW 10.4 mph - N/A   Scattered Clouds
4:53 PM 86.0 °F 92.2 °F 72.0 °F 63% 30.00 in 10.0 mi SW 13.8 mph - N/A   Partly Cloudy
5:53 PM 86.0 °F 91.5 °F 71.1 °F 61% 29.99 in 10.0 mi SW 9.2 mph - N/A   Clear
6:53 PM 84.9 °F 90.7 °F 72.0 °F 65% 29.99 in 10.0 mi SSE 10.4 mph - N/A   Clear
7:53 PM 80.1 °F 84.2 °F 73.0 °F 79% 30.00 in 10.0 mi SSE 4.6 mph - N/A   Clear
8:53 PM 79.0 °F - 73.0 °F 82% 30.01 in 10.0 mi South 4.6 mph - N/A   Clear
9:53 PM 78.1 °F - 73.0 °F 84% 30.02 in 10.0 mi South 4.6 mph - N/A   Clear
10:53 PM 77.0 °F - 73.0 °F 88% 30.03 in 10.0 mi South 3.5 mph - N/A   Clear
11:53 PM 77.0 °F - 73.0 °F 88% 30.03 in 10.0 mi SSE 3.5 mph - N/A   Clear